This demonstration page uses our WeatherBlox Daily Observations layout. Learn more.

41.55636, -103.73856

Hourly Observations for January 20, 2019

Temp ( °F °C ) Dew Point ( °F °C ) Humidity (%) Winds ( mph kmh ) Pressure ( in mb ) Visibility ( mi km ) Precip ( " mm )
12:58 am 00:58 Mostly Cloudy 38 3.1 22 -5.4 54 54 WNW 28 44 30.16 1021 10 16.0934 N/A
1:58 am 01:58 Clear 37 3 23 -5.2 55 55 WNW 24 39 30.18 1022 10 16.0934 N/A
2:58 am 02:58 Clear 38 3.5 23 -5 54 54 WNW 24 39 30.17 1022 10 16.0934 N/A
3:58 am 03:58 Clear 38 3.1 23 -5 56 56 WNW 24 39 30.15 1021 10 16.0934 N/A
4:58 am 04:58 Clear 36 2.4 23 -5.1 58 58 W 17 28 30.12 1020 10 16.0934 N/A
5:58 am 05:58 Clear 35 1.8 23 -4.8 62 62 W 16 26 30.15 1021 10 16.0934 N/A
6:58 am 06:58 Mostly Clear 37 2.7 24 -4.7 59 59 W 17 28 30.1 1019 10 16.0934 N/A
7:58 am 07:58 Clear 40 4.6 26 -3.6 56 56 WNW 23 37 30.06 1018 10 16.0934 N/A
8:58 am 08:58 Clear 38 3.2 25 -4.1 59 59 W 17 28 30.06 1018 10 16.0934 N/A
9:58 am 09:58 Mostly Clear 39 4 24 -4.2 56 56 W 18 30 30.04 1017 10 16.0934 N/A
10:58 am 10:58 Partly Cloudy 40 4.5 25 -3.7 56 56 W 23 37 30.02 1017 10 16.0934 N/A
11:58 am 11:58 Mostly Clear 37 2.9 25 -3.7 62 62 WNW 13 20 30.04 1017 10 16.0934 N/A
12:58 pm 12:58 Mostly Cloudy 38 3.1 27 -3 65 65 WNW 10 17 30.05 1018 10 16.0934 N/A
1:58 pm 13:58 Mostly Cloudy 39 3.8 27 -2.6 63 63 N 13 20 30.08 1019 10 16.0934 N/A
2:58 pm 14:58 Mostly Cloudy 36 2.2 26 -3.2 68 68 NNE 12 19 30.11 1020 10 16.0934 N/A
3:58 pm 15:58 Mostly Cloudy 38 3.3 27 -2.9 64 64 NNE 10 17 30.1 1019 10 16.0934 N/A
4:58 pm 16:58 Partly Cloudy 40 4.2 28 -2.4 63 63 E 5 7 30.11 1020 10 16.0934 N/A
5:58 pm 17:58 Mostly Sunny 41 5.2 28 -2.2 59 59 ENE 3 6 30.11 1020 10 16.0934 N/A
6:58 pm 18:58 Mostly Cloudy 42 5.8 28 -2.1 57 57 Calm 30.06 1018 10 16.0934 N/A
7:58 pm 19:58 Sunny 44 6.7 29 -1.7 55 55 Calm 29.98 1015 10 16.0934 N/A
8:58 pm 20:58 Sunny 46 7.5 29 -1.4 54 54 S 6 9 29.95 1014 10 16.0934 N/A
9:58 pm 21:58 Sunny 47 8.6 29 -1.4 50 50 S 9 15 29.91 1013 10 16.0934 N/A
10:58 pm 22:58 Sunny 43 5.9 29 -1.8 58 58 SSE 7 11 29.93 1014 10 16.0934 N/A
11:58 pm 23:58 Mostly Clear 38 3.5 27 -2.6 65 65 S 9 15 29.94 1014 10 16.0934 N/A

Powered by AerisWeather